Regional Weather Roundup
Issued by NWS

Home | Current Version | Previous Version | Graphics & Text | Print | Product List | Glossary On
Versions: 1 2 3 4 5 6 7 8 9 10 11 12 13 14 15 16 17 18 19 20 21 22 23 24 25 26 27 28 29 30 31 32 33 34 35 36 37 38 39 40 41 42 43 44 45 46 47 48 49 50
000
ASUS43 KOAX 271902
RWRNE

WEATHER ROUNDUP FOR NEBRASKA
NATIONAL WEATHER SERVICE OMAHA NE
200 PM CDT FRI MAY 27 2016

NOTES: SATELLITE DATA IS BEING USED TO AUGMENT CLOUD COVER ABOVE
       12000 FEET.
       "FAIR" INDICATES FEW OR NO CLOUDS BELOW 12,000 FEET WITH NO
       SIGNIFICANT WEATHER AND/OR OBSTRUCTIONS TO VISIBILITY.

  * THESE STATIONS DO NOT REPORT WEATHER SUCH AS RAIN...SNOW OR FOG.

NEZ001>004-019>022-054>056-272000-
NEBRASKA PANHANDLE

CITY           SKY/WX    TMP DP  RH WIND       PRES   REMARKS
SCOTTSBLUFF    CLOUDY    59  46  62 E17G23    29.89F
ALLIANCE       LGT RAIN  51  47  86 N8        29.89S
CHADRON        LGT RAIN  58  50  75 E12       29.87F
SIDNEY         MOSUNNY   56  45  66 N21       29.88S
$$

NEZ057>060-069>072-079>082-272000-
SOUTHWEST NEBRASKA

CITY           SKY/WX    TMP DP  RH WIND       PRES   REMARKS
NORTH PLATTE   CLOUDY    62  53  72 NE17      29.79F
IMPERIAL       CLOUDY    59  54  83 N14       29.79S
LEXINGTON      CLOUDY    62  57  82 E6        29.77F
MCCOOK         CLOUDY    58  56  93 E10       29.78R FOG
$$

NEZ005>010-023>029-035>040-094-272000-
NORTH CENTRAL NEBRASKA

CITY           SKY/WX    TMP DP  RH WIND       PRES   REMARKS
VALENTINE      CLOUDY    64  48  56 N14G21    29.84S
AINSWORTH      CLOUDY    64  53  65 NE14      29.82S
BROKEN BOW     LGT RAIN  61  57  87 N8        29.81R
ORD            CLOUDY    68  57  68 SE13      29.77S
$$

NEZ041-046>049-061>064-073>077-083>087-272000-
SOUTH CENTRAL NEBRASKA

CITY           SKY/WX    TMP DP  RH WIND       PRES   REMARKS
GRAND ISLAND   CLOUDY    66  59  78 E5        29.76F
HASTINGS       CLOUDY    67  58  72 E9        29.75F
KEARNEY *      CLOUDY    64  57  77 E9        29.77F
YORK           CLOUDY    66  59  77 E6        29.76F
$$

NEZ011>018-030>034-042>045-272000-
NORTHEAST NEBRASKA

CITY           SKY/WX    TMP DP  RH WIND       PRES   REMARKS
NORFOLK        MOSUNNY   70  55  59 S10       29.76F
ALBION         CLOUDY    70  57  62 SW9       29.77S
BLAIR          CLOUDY    73  61  65 SE3       29.76S
FREMONT        MOSUNNY   73  59  61 SW5       29.76F
TEKAMAH        PTSUNNY   75  56  51 SW6       29.74F
$$

NEZ050>053-065>068-078-088>093-272000-
SOUTHEAST NEBRASKA

CITY           SKY/WX    TMP DP  RH WIND       PRES   REMARKS
LINCOLN        CLOUDY    73  60  63 CALM      29.76F
OMAHA EPPLEY   PTSUNNY   74  60  61 SW7       29.75F
FALLS CITY     MOSUNNY   76  64  66 CALM      29.74S
PLATTSMOUTH    MOSUNNY   75  63  66 SW6       29.76F
$$

NEZ044-045-051>053-067-272000-
OMAHA AREA

CITY           SKY/WX    TMP DP  RH WIND       PRES   REMARKS
OMAHA EPPLEY   PTSUNNY   74  60  61 SW7       29.75F
BLAIR          CLOUDY    73  61  65 SE3       29.76S
FREMONT        MOSUNNY   73  59  61 SW5       29.76F
OFFUTT AFB     SUNNY     73  63  69 VRB1      29.75F
PLATTSMOUTH    MOSUNNY   75  63  66 SW6       29.76F
$$




USA.gov is the U.S. government's official web portal to all federal, state and local government web resources and services.